Regional Weather Roundup
Issued by NWS Pendleton, OR

Home | Current Version | Previous Version | Text Only | Print | Product List | Glossary On
Versions: 1 2 3 4 5 6 7 8 9 10 11 12 13 14 15 16 17 18 19 20 21 22 23 24 25 26 27 28 29 30 31 32 33 34 35 36 37 38 39 40 41 42 43 44 45 46 47 48 49 50
000
ASUS46 KPDT 231925
RWRPDT
PENDLETON REGIONAL WEATHER ROUNDUP
NATIONAL WEATHER SERVICE PENDLETON OREGON
1200 PM PDT WED JUL 23 2014

NOTE: FAIR INDICATES FEW OR NO CLOUDS BELOW 12,000 FEET WITH NO
SIGNIFICANT WEATHER AND/OR OBSTRUCTIONS TO VISIBILITY.

# INDICATES UNOFFICIAL STATION AND DATA

WAZ520-232010-
EAST SLOPES OF WASHINGTON CASCADES

CITY            SKY/WX      TMP DP  RH  WIND    PRES   REMARKS
#BUMPING DAM    N/A         56  N/A N/A S2      N/A
#CLE ELUM HS    N/A         59  56  90  NW2     29.92F
#CLE ELUM LAKE  N/A         58  56  93  W1      29.89S
#CLIFFDEL 2NW   N/A         59  58  96  W1      N/A
#GLENWOOD       N/A         62  58  87  SW6     29.95R
#MANASTASH CYN  N/A         60  57  90  CALM    29.96F
#NELSON         N/A         59  56  90  CALM    29.93S
#NELSON 3SW     N/A         56  55  96  CALM    30.12S
#PEOH POINT     N/A         52  51  96  SW7     N/A
#RONALD 2NW     N/A         59  56  90  CALM    29.88R
#TROUT LAKE 1NE N/A         59  57  93  CALM    29.97R
$$

WAZ521-232010-
SIMCOE HIGHLANDS

CITY            SKY/WX      TMP DP  RH  WIND    PRES   REMARKS
#BICKLETON HS   N/A         66  47  50  W7      30.03S
#CENTERVILLE 1SWN/A         61  55  81  W13     29.94R
#GOLDENDALE 1NE N/A         64  56  75  SW7     N/A
#GOLDENDALE 1S  N/A         65  59  81  W8      29.98R
#GOLDENDALE 5WNWN/A         61  56  84  W13     29.94R
#GOODNOE HILLS  N/A         71  58  64  W20     29.91S
#LYLE 6NE       N/A         56  54  93  S8      29.97R
$$

WAZ026-232010-
KITTITAS VALLEY

CITY            SKY/WX      TMP DP  RH  WIND    PRES   REMARKS
ELLENSBURG AP   CLOUDY      66  56  70  NW15    29.96S
#ELLENSBURG CWU N/A         64  58  81  NW14    29.86S
#ELLENSBURG 3NE N/A         63  58  84  NW8     29.96F
#ELLENSBURG 1E  N/A         64  58  81  CALM    N/A
#KITTITAS 3S    N/A         65  60  84  W8      29.87S
#THORP 6N       N/A         59  56  90  N8      29.91F
$$

WAZ027-232010-
YAKIMA VALLEY

CITY            SKY/WX      TMP DP  RH  WIND    PRES   REMARKS
YAKIMA AIRPORT  PTCLDY      76  58  54  NW10    29.93F
YAKIMA-VAGABOND MOCLDY      73  57  57  VRB6    29.94F
#COWICHE 1N     N/A         66  57  73  W6      30.09S
#DONALD 2NE     N/A         67  43  42  SW1     30.30S
#GRANDVIEW      N/A         76  58  54  W3      29.89F
#MABTON         N/A         74  61  64  NW2     29.91S
#MOXEE 2E       N/A         75  42  31  SW7     29.84F
#NACHES 2SW     N/A         67  59  75  W5      29.97S
#OUTLOOK DOT    N/A         N/A N/A N/A N5      N/A
#SELAH 8E       N/A         72  57  59  W7      N/A
#TERRACE HTS    N/A         81  59  47  N3      29.83F
#TOPPENISH      N/A         73  61  66  NW1     29.81F
#WAPATO 4NE     N/A         67  43  42  SW1     30.30S
#WEST VALLEY    N/A         71  60  68  NW6     29.90F
#W YAKIMA       N/A         70  60  71  NW3     29.88F
#WHITE SWAN 5E  N/A         74  61  64  W1      29.89F
#WILEY CITY 3W  N/A         66  56  70  CALM    29.95F
$$

WAZ028-232010-
LOWER COLUMBIA BASIN...WASHINGTON

CITY            SKY/WX      TMP DP  RH  WIND    PRES   REMARKS
HANFORD         CLOUDY      80  53  39  W10     29.87F
PASCO           CLOUDY      80  57  45  W6      29.89F
PROSSER AWOS    N/A         77  61  58  SW6     29.94F
RICHLAND AWOS   PTCLDY      81  55  41  SW7     29.89F
#BASIN CITY 5SW N/A         80  63  56  CALM    29.89F
#BENTON CITY    N/A         76  59  56  W7      29.78F
#CONNELL 5N     N/A         78  58  50  NW2     29.84F
#CONNELL 5NW    N/A         76  61  60  NW2     29.80F
#ELTOPIA        N/A         81  59  47  CALM    29.82F
#ELTOPIA 6NW    N/A         75  60  60  SW6     28.87F
#KENNEWICK 3S   N/A         78  63  60  CALM    29.86F
#PASCO-BROADMOORN/A         82  57  43  NW2     29.75F
#PATERSON       N/A         77  61  58  SW3     29.87F
#PROSSER        N/A         74  59  59  W5      29.88S
#SAGEMOOR 2W    N/A         77  62  60  W3      29.71F
#TOUCHET 2S     N/A         77  64  64  SW7     29.85S
#WEST PASCO     N/A         82  61  49  W3      29.85F
$$

WAZ029-232010-
FOOTHILLS OF THE BLUES...WASHINGTON

CITY            SKY/WX      TMP DP  RH  WIND    PRES   REMARKS
WALLA WALLA AP  PTCLDY      82  58  44  SW13    29.92S
#COLLEGE PLACE  N/A         86  58  39  W5      29.89F
#DAYTON SCHOOL  N/A         82  52  35  SW2     29.90S
#LOWDEN 2SE     N/A         79  63  58  W10     29.85F
#PLEASANT VIEW 1N/A         84  58  41  SW7     29.86F
#PRESCOTT       N/A         84  61  46  SW2     29.82F
#SUDBURY        N/A         79  N/A N/A SW8     N/A
#WHITMAN COLLEGEN/A         78  60  54  W3      29.90F
#WAITSBURG 8N   N/A         81  41  24  S17     29.74F
#WALLA WALLA 5E N/A         83  60  46  E6      N/A
#WALLA WALLA U  N/A         81  62  53  CALM    29.85S
#WHITMAN MISSIONN/A         81  64  56  W7      29.86F
$$

WAZ030-232010-
BLUE MOUNTAINS...WASHINGTON

CITY            SKY/WX      TMP DP  RH  WIND    PRES   REMARKS
$$

ORZ009-041-WAZ024-232010-
COLUMBIA RIVER GORGE

CITY            SKY/WX      TMP DP  RH  WIND    PRES   REMARKS
HOOD RIVER AP   RAIN        57  55  93  NW8     30.05R
THE DALLES AP   LGT RAIN    65  56  73  N9      30.01R
#ARLINGTON AIRPON/A         71  56  59  W21     N/A
#ARLINGTON HS   N/A         75  56  52  CALM    29.84R
#CELILO DOT     N/A         68  51  55  N2      N/A
#MOSIER 1S      N/A         57  54  90  W6      30.09S
#MURDOCK        N/A         64  59  84  NW17G26 30.01R

$$

ORZ510-232010-
NORTH CENTRAL OREGON

CITY            SKY/WX      TMP DP  RH  WIND    PRES   REMARKS
#CHENOWITH 1W   N/A         55  54  96  NW18    N/A
#COW CYN RST AREN/A         63  53  70  SW13    N/A
#DUFUR 9E       N/A         59  54  83  NW8     30.00R
#GRASS VALLEY 1SN/A         63  52  67  W17G29  29.98R
#KENT DOT       N/A         64  42  45  W22     N/A
#MORO SCHOOL    N/A         64  59  84  W14     30.02R
#SHANIKO 5WSW   N/A         62  44  52  W14     N/A
#SHANIKO 4NW    N/A         59  47  64  W15G25  30.07R
#TYGH VALLEY 2NEN/A         67  56  68  SW7     29.96R
#WAPANITIA AIRPON/A         62  54  75  W5      29.97R
#WASCO DOT      N/A         67  50  54  W14     N/A
#WASCO AIRPORT  N/A         67  53  61  W13     N/A
#WASCO 5NE      N/A         69  56  63  W8      29.94R
$$

ORZ511-232010-
CENTRAL OREGON

CITY            SKY/WX      TMP DP  RH  WIND    PRES   REMARKS
BEND AIRPORT    LGT RAIN    54  50  86  SW14    30.13R
MADRAS AIRPORT  CLOUDY      63  50  62  SW5     30.08R
REDMOND AIRPORT RAIN        55  50  83  SW8     30.11R
#BEND 6E        N/A         54  49  83  CALM    29.97R
#BEND 1SW       N/A         54  52  93  S2      N/A
#BEND-AWBREY    N/A         56  51  83  NE5     29.97R
#BEND-KIM LN    N/A         56  52  86  SW5     30.10R
#CROOKED RVR RANN/A         57  49  75  W9      29.99R
#CULVER         N/A         60  49  67  SW7     30.05R
#LAKE BILLY CHINN/A         58  34  40  S10     30.13R
#POWELL BUTTE 3EN/A         63  54  72  NW12    N/A
#POWELL BUTTE   N/A         57  51  80  W6      29.76R
#PRINEVILLE 3N  N/A         56  49  77  CALM    29.97R


ORZ509-232010-
EAST SLOPES OF OREGON CASCADES

CITY            SKY/WX      TMP DP  RH  WIND    PRES   REMARKS
#BLUE BOX PASS  N/A         50  -1  12  NW3     N/A
#BLACK BUTTE RNCN/A         54  51  90  CALM    29.97R
#CAMP SHERMAN   N/A         54  51  90  CALM    30.04R
#LA PINE DOT    N/A         53  45  74  SE3     N/A
#LA PINE 4NW    N/A         51  47  86  CALM    30.05R
#LAVA BUTTE DOT N/A         50  48  93  SE6     N/A
#MT BACHELOR-LOWN/A         44  N/A N/A MISG    N/A
#SISTERS AIRPOR N/A         58  51  77  N10     30.07S
#SISTERS ODOT   N/A         58  N/A N/A SE3     N/A
#SISTERS 1NW    N/A         58  43  57  S5      N/A
#SISTERS 3N     N/A         57  32  38  CALM    30.13R
#SUNRIVER       N/A         52  50  93  S3      29.88R
#SUNRIVER AP    N/A         51  48  89  SW5     29.98R
#TUMALO 3W      N/A         57  45  64  N3      29.86R
#WANOGA BUTTE D N/A         45  40  82  NW21G38 N/A    WCI 37

$$

ORZ044-232010-
LOWER COLUMBIA BASIN...OREGON

CITY            SKY/WX      TMP DP  RH  WIND    PRES   REMARKS
HERMISTON       PTCLDY      81  58  46  W18G26  29.91S
#BOARDMAN SCHOOLN/A         77  57  50  W12     29.89F
#BOARDMAN 3W    N/A         83  59  44  SW14    29.62S
#BOARDMAN 8SW   N/A         78  59  52  W18     29.90S
#IONE SCHOOL    N/A         73  55  53  W14     29.95S
#IRRIGON 4NW    N/A         79  63  58  SW7     N/A
#UMATILLA SCHOOLN/A         80  68  67  W9      29.92F
#UMATILLA       N/A         79  60  52  W12     29.88S
$$

ORZ507-232010-
NORTHERN FOOTHILLS OF THE BLUES

CITY            SKY/WX      TMP DP  RH  WIND    PRES   REMARKS
PENDLETON AIRPT LGT RAIN    77  58  52  W16     29.94S
#ADAMS 3WNW     N/A         74  60  62  W10     29.85S
#ATHENA         N/A         77  60  56  SW5     29.88S
#HELIX SCHOOL   N/A         73  59  62  W10     29.86S
#HELIX 3N       N/A         73  59  62  W15     29.93R
#HELIX 6SW      N/A         72  61  68  W9      29.94S
#HOLDMAN 5SE    N/A         74  62  66  W8      29.94S
#M-F FERNDALE   N/A         87  67  52  CALM    29.90F
#M-F GROVE ELEM N/A         79  59  50  N1      29.90F
#M-FREEWATER 5SEN/A         79  64  60  W1      29.91S
#PDT AQUATIC CTRN/A         76  60  58  W8      29.92S
#PENDLETON DNTN N/A         77  56  48  W3      29.89S
#PENDLETON 5NE  N/A         76  62  62  CALM    29.91S
#PDT SUNRIDGE   N/A         77  60  56  W8      29.94S
#PENDLETON 7NW  N/A         74  62  66  W10     27.73R
#PILOT ROCK     N/A         75  59  58  W1      29.96S
#TUTUILLA       N/A         77  62  60  W10     29.82S
#WESTON SCHOOL  N/A         75  57  54  NW7     29.92S

$$

ORZ508-232010-
SOUTHERN FOOTHILLS OF THE BLUES

CITY            SKY/WX      TMP DP  RH  WIND    PRES   REMARKS
#AJAX           N/A         N/A N/A N/A W8      30.03S
#CONDON SCHOOL  N/A         67  54  63  W10     29.98S
#HEPPNER EOC    N/A         71  56  59  W6      29.85S
#HEPPNER 4NE    N/A         68  55  63  W10     29.89S
#LEXINGTON 2SE  N/A         75  58  56  W13     29.95S
#MIKKALO        N/A         70  52  53  W15G26  30.00S
#RUGGS 5NE      N/A         71  57  61  W7      30.20R
#RUGGS 2SW      N/A         71  54  55  W8      29.93S

$$

ORZ502-503-232010-
BLUE MOUNTAINS

CITY            SKY/WX      TMP DP  RH  WIND    PRES   REMARKS
MEACHAM         MOCLDY      70  57  63  NW8     30.03R
#BATTLE MTN DOT N/A         68  58  70  N2      N/A
#HARDMAN 10S    N/A         70  49  47  S6      30.11S
#HEPPNER 15SE   N/A         64  56  75  NW1     29.96S
#LADD CYN SMT   N/A         77  48  36  SE7     N/A
#LADD CREEK ODOTN/A         80  55  42  S6      N/A
#LONG CREEK HS  N/A         72  51  48  W9      29.96F
#PIKES PEAK     N/A         69  58  68  SW12    27.99S
#TOLLGATE 9W    N/A         71  59  66  SE5     N/A
#TROY SCHOOL    N/A         81  63  54  CALM    29.69F
#UKIAH          N/A         76  53  45  SW1     29.87F
#WESTON 4E      N/A         71  59  66  SW7     29.80S
$$

ORZ505-232010-
JOHN DAY BASIN

CITY            SKY/WX      TMP DP  RH  WIND    PRES   REMARKS
JOHN DAY        PTCLDY      82  40  22  SW21G32 30.03F
#JOHN DAY KJDY  N/A         86  41  21  W5      29.93R
#MONUMENT HS    N/A         77  57  50  NW2     29.74F
#MT. VERNON 5SE N/A         75  41  29  SW7     30.00S
#WINLOCK        N/A         75  56  52  N9      30.08F
$$

ORZ506-232010-
OCHOCO AND JOHN DAY HIGHLANDS

CITY            SKY/WX      TMP DP  RH  WIND    PRES   REMARKS
#BUCK CREEK DOT N/A         71  51  49  S14     N/A
#HORSE RIDGE DO N/A         53  45  74  W20G30  N/A
#KEYES SMT DOT  N/A         68  -42  1  NW10    N/A
#PAULINA SCHOOL N/A         N/A N/A N/A S10     30.04F
#PINE MTN OBS   N/A         48  42  80  NW7     N/A
#PRAIRIE CITY   N/A         80  45  29  S7      29.81F
#SENECA 9NW     N/A         70  46  42  W1      29.86S
$$

ORZ049-232010-
GRANDE RONDE VALLEY

CITY            SKY/WX      TMP DP  RH  WIND    PRES   REMARKS
LA GRANDE       PTCLDY      88  52  29  S21G24  29.94F
#COVE           N/A         83  54  37  S7      29.88F
#COVE SCHOOL    N/A         84  52  33  W1      29.95F
#COVE 6NW       N/A         81  56  42  S7      29.87F
#ELGIN 3N       N/A         80  57  45  S7      29.68F
#ELGIN 1E       N/A         78  60  54  CALM    N/A
#IMBLER SCHOOL  N/A         79  60  52  CALM    29.90F
#ISLAND CITY 4N N/A         80  61  52  CALM    29.78F
#LADD CYN DOT   N/A         80  53  39  S9      N/A
#UNION 1S       N/A         85  54  35  S7      29.73F
$$

ORZ050-232010-
WALLOWA COUNTY

CITY            SKY/WX      TMP DP  RH  WIND    PRES   REMARKS
JOSEPH AIRPORT  SUNNY       84  34  17  SE20G28 30.02F
#ENTERPRISE HS  N/A         79  49  35  W1      30.00F
#JOSEPH 3N      N/A         79  50  36  SE8     30.03F
#LOSTINE        N/A         76  58  54  NW1     29.63F
#MT HOWARD 8000 N/A         60  N/A N/A S15G41  30.26F
#PROMISE 1S     N/A         71  60  68  S1      29.97F
#SHEEP RDG 7000 N/A         64  36  35  CALM    29.86F
#WALLOWA SCHOOL N/A         76  57  52  CALM    30.70F



$$



USA.gov is the U.S. government's official web portal to all federal, state and local government web resources and services.